Location: Balagbag Mahabang Kahoy
(14.1562°N, 120.9200°E)
Time: 18:34:35
(UTC+00:00)

Ariane H10+ - Pass Details

Date: 16 January 2026
Orbit: 368 x 33665 km, 7.1° (Epoch: 17 February)

Event Time Altitude Azimuth Distance (km) Brightness Sun altitude
Exits shadow 21:01:36 20° 195° (SSW) 948 2.5 -19.8°
Maximum altitude 21:02:07 21° 176° (S) 943 2.7 -19.7°
Drops below altitude 10° 21:04:43 10° 121° (ESE) 1,839 5.1 -19.1°
Sets 21:08:40 0° 105° (ESE) 3,831 7.3 -18.2°
